STARLINK-3286 (50171 NORAD) Tracking and Keplerian Element Data

This shows tracking and keplerian element data for the satellite.

Feedback or suggestion? Click here.




ElementValue
Catalog50171
NameSTARLINK-3286
Epoch Orbit130
Epoch Day140.58334491
Epoch Year2022
RAAN5.0555
Inclination53.2166
Eccentricity0.0001658
Argument of Perigee53.0588
Mean Anonmoly233.4131
Mean Motion15.08857718
Decay Rate-0.00022891
L11 50171U 21125R 22140.58334491 -.00022891 00000+0 -14240-2 0 9997
L22 50171 53.2166 5.0555 0001658 53.0588 233.4131 15.08857718 1309

Live tracking and technical data element details for STARLINK-3286 (NORAD 50171). STARLINK-3286 can be tracked NOW for your location showing map with azimuth and elevation plus other details from your city location.

Track the satellite on the map from your city or location and see movement details for azimuth, elevation, latitude, longitude, range, height, and movement on the map or in text.







IsCatalogInMostPopularTable: catalog: 50171, numindb: 23
Update: records affected: 1



GetName: 50171 STARLINK-3286

Hit Count: updated at: Mon, 23 May 2022 20:37:59 GMT